TIME,DELAY(SENSOR),PRES,OXYGEN,RAWTEMP,T(OPTODE),TCPHASE,FLUOR,BETA(BETA700),BETA(BETA412),BETA(BETA440),CDOM,C(CSC),ED(ED411.90),ED(ED443.80),ED(ED489.40),ED(ED554.70),LU(LU412.20),LU(LU443.80),LU(LU489.40),LU(LU555.00),COMP,TILTX,TILTY,CHECK
1371162942,5806,862.4799804687500000,158.5422973632812500,424.3622131347656000,9.8588027954101560,39.4818305969238300,52,102,96,80,79,10035,2146963702,2147516507,2147286107,2147499081,2147084041,2146931629,2147705051,2147121344,540,-1,8,23850
1371166538,5805,972.2100219726562000,185.7868041992187500,494.7847900390625000,7.6911988258361820,38.7176399230957000,52,101,95,80,80,10035,2146963108,2147516681,2147295186,2147511661,2147081856,2146920530,2147714852,2147123693,2033,-1,8,25007
1371170138,5804,981.9600219726562000,190.5991973876953000,506.2235107421875000,7.3362851142883300,38.6019783020019500,52,106,100,80,81,10030,2146961014,2147516032,2147294848,2147513152,2147085915,2146920832,2147717248,2147122084,1019,-1,8,61585
1371173738,5805,983.5000000000000000,198.4627075195312500,507.0924987792969000,7.3092880249023440,38.1182708740234400,53,105,96,80,81,10033,2146961764,2147515245,2147295689,2147512676,2147086317,2146920676,2147716324,2147119725,2821,-1,8,18278
1371177338,5804,990.2000122070312000,198.6725006103515600,508.7031860351562500,7.2592310905456540,38.1338806152343750,52,104,97,79,81,10030,2146963209,2147519707,2147292516,2147511140,2147083501,2146916534,2147720219,2147121545,2887,-1,8,34126
1371180938,5804,1004.5200195312500000,199.7068023681640600,506.0548095703125000,7.3415269851684570,38.0226402282714840,53,103,95,82,80,10030,2146960484,2147521051,2147295040,2147512301,2147086345,2146916333,2147717814,2147118683,3070,-1,8,3852
1371184538,5806,998.5300292968750000,197.0505981445312500,506.6036987304687500,7.3244748115539550,38.1972084045410160,53,107,96,79,80,10026,2146959012,2147520210,2147294336,2147512448,2147087460,2146917558,2147717165,2147117074,3115,-1,8,38886
1371188138,5805,1002.7800292968750000,195.6582946777343800,506.8635864257812500,7.3163990974426270,38.2901496887207000,53,101,97,80,80,10031,2146964059,2147519716,2147294390,2147512118,2147084132,2146921106,2147720018,2147119433,3589,-1,8,19768
1371191738,5805,1008.2600097656250000,199.5267028808593800,506.9927978515625000,7.3123831748962400,38.0506210327148440,53,103,96,80,81,10029,2146961609,2147515437,2147297014,2147512813,2147085028,2146925467,2147717540,2147122377,3402,-1,8,38474
1371195338,5807,1006.6400146484375000,201.4801025390625000,507.3815917968750000,7.3003029823303220,37.9372406005859400,52,103,97,80,80,10028,2146964306,2147515968,2147297517,2147512109,2147084699,2146924132,2147717723,2147121691,179,-1,8,37648
1371198938,5807,1001.6699829101562000,196.6575927734375000,506.8168945312500000,7.3178491592407230,38.2265014648437500,52,104,96,80,80,10026,2146963510,2147519268,2147295725,2147512832,2147084992,2146923830,2147715190,2147122057,634,-1,8,61420
1371202538,5805,1004.5300292968750000,197.0460968017578000,508.7785034179687500,7.2568879127502440,38.2367897033691400,52,105,96,80,80,10026,2146962331,2147514486,2147294848,2147509549,2147085760,2146924699,2147722422,2147121920,3480,-1,8,41171
1371206138,5804,1004.5499877929688000,201.7872924804687500,510.8540039062500000,7.1923618316650390,37.9792594909668000,52,105,97,79,81,10024,2146961929,2147518939,2147293906,2147513636,2147084452,2146922313,2147720795,2147119488,3428,-1,8,30595
1371209738,5806,1003.0000000000000000,203.8336944580078000,510.6289978027344000,7.1993560791015625,37.8510894775390600,53,106,97,79,80,10023,2146963556,2147518244,2147294244,2147509220,2147087296,2146916342,2147721353,2147122541,3206,-1,8,28299
1371213338,5806,1005.6599731445312000,202.9051055908203000,510.0555114746094000,7.2171912193298340,37.8973999023437500,52,105,97,80,81,10022,2146962349,2147518500,2147294400,2147512539,2147087268,2146923318,2147717193,2147124672,3542,-1,8,28173
1371216938,5806,1005.1300048828125000,202.1269073486328000,510.2734069824219000,7.2104148864746090,37.9480705261230500,53,107,98,80,80,10019,2146961344,2147518848,2147296036,2147512118,2147087058,2146922249,2147717458,2147121225,378,-1,8,29490
1371220538,5805,1006.7399902343750000,201.1439056396484400,510.3853149414062500,7.2069339752197270,38.0099716186523440,53,106,96,79,80,10021,2146966838,2147517842,2147296274,2147512219,2147085558,2146921828,2147720932,2147125458,132,-1,8,51911
1371224138,5805,1005.9500122070312000,199.2355957031250000,511.6465148925781000,7.1677122116088870,38.1505393981933600,52,111,96,79,80,10020,2146963867,2147516873,2147296521,2147512859,2147085677,2146921051,2147718217,2147120969,3476,-1,8,14551
1371227738,5804,1001.0800170898438000,199.5783996582031200,513.3695068359375000,7.1141119003295900,38.1596298217773440,52,104,97,80,80,10015,2146964105,2147516105,2147296502,2147515510,2147085961,2146920000,2147716681,2147124233,3144,-1,8,36791
1371231338,5803,1000.4799804687500000,204.2055053710937500,514.7020874023438000,7.0726418495178220,37.8998413085937500,52,108,101,80,81,10007,2146959652,2147516827,2147296137,2147512091,2147086848,2146922422,2147719113,2147122130,3494,-1,8,14728
1371234938,5805,1008.9600219726562000,206.6958007812500000,511.7211914062500000,7.1653909683227540,37.6975784301757800,52,105,98,80,80,10017,2146962998,2147518710,2147300370,2147513673,2147086784,2146924562,2147719661,2147118784,2278,-1,8,23863
1371238538,5804,1008.4799804687500000,205.2474975585937500,512.2108764648438000,7.1501560211181640,37.7928009033203100,53,112,97,80,80,10015,2146960822,2147520768,2147298907,2147511213,2147086445,2146921508,2147722925,2147119908,2817,-1,8,24805
1371242138,5804,1009.0999755859375000,207.1903076171875000,512.1229858398438000,7.1528902053833010,37.6752586364746100,52,108,97,78,81,10012,2146961115,2147517860,2147297819,2147512283,2147087917,2146922121,2147717787,2147121408,3047,-1,8,53515
1371245738,5804,1006.4199829101562000,204.2671966552734400,512.0134887695312000,7.1562972068786620,37.8483695983886700,52,108,97,79,81,10013,2146963017,2147514633,2147299126,2147515538,2147086619,2146921014,2147717138,2147125741,3004,-1,8,40070
1371249338,5806,1009.3699951171875000,204.1233978271484400,511.1962890625000000,7.1817150115966800,37.8433303833007800,51,104,97,80,81,9997,2146959360,2147515492,2147297700,2147513344,2147086326,2146917833,2147719232,2147118976,71,-1,8,11464
1371252938,5803,1013.4299926757812000,202.1246948242187500,509.6354064941406000,7.2302489280700680,37.9370307922363300,53,108,97,80,80,10013,2146960502,2147518116,2147293613,2147512237,2147089408,2146926902,2147720740,2147119881,3418,-1,8,19288
1371256538,5807,1019.3599853515625000,200.7097930908203000,508.8700866699219000,7.2540431022644040,38.0106582641601560,52,101,96,79,80,10012,2146962541,2147514230,2147294198,2147512265,2147085019,2146923812,2147714669,2147119424,177,-1,8,20045
1371260138,5809,1019.9799804687500000,202.0496978759765600,507.7885131835937500,7.2876601219177250,37.9089508056640600,53,104,97,81,81,10012,2146961298,2147519488,2147295378,2147512292,2147087424,2146924891,2147718153,2147121792,42,-1,8,30970
1371263738,5806,1021.2999877929688000,200.5997009277343800,507.7502136230469000,7.2888488769531250,37.9974708557128900,52,104,96,79,80,10007,2146960822,2147516169,2147294464,2147512822,2147083977,2146917293,2147711341,2147122788,531,-1,8,65169
1371267338,5805,1012.9000244140625000,198.9553070068359400,508.8814086914062500,7.2536911964416500,38.1193809509277340,53,103,98,79,81,10003,2146961718,2147517686,2147293814,2147512576,2147086427,2146917824,2147715986,2147121920,1028,-1,8,49866
1371270938,5808,1013.4000244140625000,201.9223022460937500,511.1358032226562500,7.1835961341857910,37.9764289855957000,52,104,97,80,80,10007,2146964388,2147521398,2147294390,2147514322,2147087862,2146923858,2147719158,2147121910,24,-1,8,7823
1371274538,5808,1009.8900146484375000,205.5525054931640600,511.7952880859375000,7.1630868911743160,37.7676506042480500,52,107,97,80,81,10005,2146962368,2147520621,2147295689,2147513773,2147085942,2146923776,2147718985,2147123803,468,-1,8,13555
1371278138,5807,1011.2299804687500000,206.5811004638672000,512.3585815429688000,7.1455631256103520,37.7162284851074200,52,108,96,80,81,10005,2146965321,2147515456,2147296603,2147512466,2147085229,2146922678,2147717760,2147121819,504,-1,8,10144
1371281738,5801,1008.2999877929688000,206.9214019775390600,513.4334106445312000,7.1121230125427250,37.7145309448242200,53,105,96,79,79,9999,2146959140,2147518729,2147295963,2147513682,2147086409,2146919104,2147721453,2147124745,3008,-1,8,9746
1371285338,5805,1008.4699707031250000,205.5652008056640600,513.9096069335938000,7.0973048210144040,37.8042411804199200,52,111,98,81,81,10000,2146961170,2147512950,2147297462,2147514880,2147086198,2146924443,2147716105,2147122678,3107,-1,8,14361
1371288938,5805,1012.5999755859375000,205.2245941162109400,512.2636718750000000,7.1485137939453125,37.7952194213867200,52,104,95,81,80,9994,2146965184,2147517659,2147296493,2147513444,2147086418,2146922816,2147720036,2147122157,3029,-1,8,25001
1371292538,5807,1018.9899902343750000,201.1078948974609400,512.2080078125000000,7.1502480506896970,38.0450210571289060,51,105,97,80,80,9995,2146960731,2147517760,2147294363,2147513188,2147086793,2146921792,2147719296,2147121801,3317,-1,8,62893
1371296138,5803,1017.4899902343750000,202.1342010498047000,510.8440856933594000,7.1926679611206055,37.9579315185546900,52,107,97,79,80,9997,2146962880,2147516928,2147294061,2147515236,2147087908,2146917485,2147716041,2147121462,3307,-1,8,21581
1371299738,5805,1012.9299926757812000,202.6461944580078000,510.5938110351562500,7.2004508972167970,37.9221801757812500,53,107,97,79,80,9996,2146958445,2147515328,2147296941,2147510500,2147086089,2146921563,2147715830,2147124379,3429,-1,8,14525
1371303338,5807,1016.5200195312500000,202.4293975830078000,512.1063842773438000,7.1534090042114260,37.9624900817871100,52,103,97,80,80,9990,2146959826,2147517458,2147296722,2147512420,2147085568,2146920832,2147721627,2147122212,102,-1,8,58482
1371306355,5808,1021.6199951171875000,202.5126037597656200,509.9995117187500000,7.2189311981201170,37.9195785522460940,53,105,97,79,80,9990,2146964205,2147520320,2147295488,2147515885,2147088292,2146919378,2147718619,2147124480,415,-1,8,55374
